{"data":{"norad_id":59317,"epoch":"2026-05-25T01:13:17.862816Z","epoch_age_seconds":60789,"freshness":"FRESH","line1":"1 59317U 24056X   26145.05090119  .00000309  00000+0  20749-4 0  9992","line2":"2 59317  43.0015 159.3828 0001237 266.1508  93.9202 15.27577431122908","mean_motion":15.27577431,"eccentricity":0.0001237,"inclination_deg":43.0015,"raan_deg":159.3828,"arg_perigee_deg":266.1508,"mean_anomaly_deg":93.9202,"bstar":2.0749e-5,"rev_number":12290,"period_min":94.26690724655,"perigee_km":482.20805888898,"apogee_km":483.90551823227,"semimajor_km":6861.1937885606,"source":"CELESTRAK","updated_at":"2026-05-25T13:38:18.901903Z"}}